COSMOS 1375 DEB, 16382

Orbit data source: Space-Track

COSMOS 1375 DEB, 16382 is space debris in LEO originally from a launch on Sun, 06 Jun 1982 UTC launched from the Plesetsk Missile And Space Complex (PKMTR). Debris objects in space refer to the collection of defunct objects orbiting the Earth. Examples of debris include non-operational satellites, rocket bodies, and fragments generated from explosions, collisions, or faulty payload assembly.

Loading next visibility...
Identifier
16382, 1982-055W
Orbit
LEO
Country
Flag of CISCIS
Related business
Manufacturer
Unknown
Mission
Spacecraft
Bus & Motor
Unknown
Mass
Unknown
Launch date (UTC)
1982-06-06 (44 years ago)
Launch vehicle
Unknown
Launch site
Plesetsk Missile And Space Complex (PKMTR)
Object type
Payload
Rocket body
Debris
Shape & HBR
Unknown shape, 0.2 m
Radar Cross Section
Medium (>0.1 m² and <1 m²)

Expand to show TLE details & history
Last TLE update: 2 days ago

TLE from 2 days ago
0 COSMOS 1375 DEB
1 16382U 82055W   26171.44414728  .00003249  00000-0  92093-3 0  9995
2 16382  65.7370 286.6133 0033674 253.3280 174.7559 14.46524954 90792
Epoch: 2026-06-20T10:39Z
TLE epoch observation values (Epoch: 2026-06-20T10:39:34.324Z)
Latitude
57.89933°
Longitude
-96.32015°
Altitude
769.707 km
Speed
7.463 km/s
True Right ascension
22h 08m 55s
True Declination
57° 44' 40"
Sunlit
Object was in daylight at epoch
Visualization orbit readout
Latitude
Unknown
Longitude
Unknown
Altitude
Unknown
Speed
Unknown
Apparent Right ascension
Unknown
Apparent Declination
Unknown
Sunlit
N/A
Visualization observer readout
Local Sidereal Time
23:08:11
Azimuth
Unknown
Elevation
Unknown
Doppler factor
Unknown
Orbital elements
Apogee altitude
759.453 km
Perigee altitude
711.544 km
Semi-major axis
7,113.636 km
Eccentricity
0.00337
Inclination
65.737°
RAAN
286.6133°
Arg. of periapsis
253.328°
True anomaly
174.79102°
Mean anomaly
174.7559°
Eccentric anomaly
174.77348°
Mean motion
3.61748 °/min
Orbital period
99.52 mins
BSTAR
0.00092093
Loading maneuver chart data...
Computing Atmospheric mass density...
Loading historical data...
Loading historical data...
Loading historical data...
Loading historical data...
Loading historical data...
Loading historical data...
Loading historical data...

Documentation

Showing up to 5 results
|